Visibility
15.0 15.0 15.0 14.9 15.0 15.0 15.0 14.3 14.4 14.5 11.7 15.0 15.0 15.0 14.8 8.8 14.6 6.8 7.3 15.0 2.1 0.2 15.0 15.0 15.0 15.0 15.0 15.0 15.0 15.0 14.5 15.0 15.0 15.0 15.0 15.0 15.0 15.0 15.0 15.0 15.0 15.0 0.9 0.1 0.1 1.7 0.1 15.0 15.0 15.0 15.0 15.0 15.0 15.0
10.9 12.8 15.0 14.7 15.0 15.0 14.8 15.0 14.4 15.0 14.1 10.3 15.0 15.0 15.0 15.0 8.6 4.4 4.0 15.0 13.5 0.1 9.2 15.0 15.0 15.0 15.0 15.0 15.0 14.9 15.0 15.0 15.0 15.0 15.0 15.0 15.0 15.0 15.0 15.0 15.0 15.0 15.0 15.0 13.5 14.6 13.9 15.0 15.0 15.0 15.0 15.0 15.0 15.0
5.7 14.1 15.0 15.0 15.0 15.0 15.0 15.0 15.0 14.7 14.1 15.0 12.4 15.0 10.8 15.0 10.0 3.3 12.4 15.0 3.8 0.1 1.1 11.9 15.0 15.0 15.0 9.7 15.0 9.4 12.1 14.6 13.5 15.0 15.0 15.0 9.1 15.0 15.0 15.0 15.0 15.0 15.0 15.0 15.0 15.0 15.0 15.0 15.0 15.0 15.0 15.0 15.0 15.0
15.0 15.0 15.0 15.0 15.0 15.0 15.0 15.0 15.0 4.7 11.3 10.5 14.9 12.9 15.0 15.0 4.4 3.4 15.0 15.0 12.1 0.5 8.0 10.8 15.0 15.0 15.0 15.0 13.6 14.9 15.0 15.0 9.8 15.0 6.3 6.7 9.0 15.0 15.0 15.0 15.0 15.0 15.0 15.0 15.0 15.0 14.8 15.0 15.0 15.0 15.0 15.0 15.0 15.0
15.0 15.0 15.0 15.0 15.0 15.0 15.0 15.0 15.0 10.9 4.6 6.4 9.0 15.0 8.5 2.7 3.6 10.1 15.0 15.0 10.1 3.8 5.8 15.0 15.0 5.7 15.0 15.0 15.0 15.0 15.0 15.0 14.8 5.0 0.5 13.8 11.8 12.8 15.0 13.0 15.0 15.0 15.0 15.0 13.8 15.0 13.9 15.0 15.0 15.0 15.0 15.0 15.0 15.0
15.0 15.0 15.0 15.0 15.0 15.0 15.0 15.0 14.8 11.6 8.9 15.0 15.0 11.0 6.0 9.3 9.7 4.6 0.2 2.9 11.9 15.0 14.9 0.1 13.8 8.5 15.0 15.0 15.0 15.0 15.0 15.0 4.4 4.6 14.5 3.3 7.9 15.0 5.5 15.0 15.0 15.0 15.0 15.0 15.0 15.0 15.0 15.0 15.0 15.0 15.0 15.0 15.0 15.0
15.0 15.0 15.0 15.0 15.0 15.0 15.0 15.0 15.0 15.0 15.0 15.0 14.1 15.0 15.0 9.1 10.9 5.9 3.7 9.0 11.7 3.1 11.2 15.0 15.0 15.0 15.0 15.0 15.0 15.0 15.0 15.0 9.2 13.6 3.9 6.1 6.7 7.4 15.0 15.0 15.0 15.0 15.0 15.0 15.0 15.0 15.0 15.0 15.0 15.0 15.0 15.0 15.0 15.0
15.0 15.0 15.0 15.0 15.0 15.0 15.0 15.0 15.0 13.4 13.9 15.0 15.0 12.2 2.3 2.0 13.2 15.0 15.0 15.0 15.0 15.0 15.0 15.0 14.0 15.0 15.0 15.0 15.0 15.0 15.0 15.0 15.0 8.3 4.7 10.1 15.0 7.7 11.7 2.9 15.0 15.0 15.0 15.0 15.0 15.0 15.0 15.0 15.0 15.0 15.0 15.0 15.0 15.0
15.0 15.0 14.9 15.0 15.0 15.0 15.0 8.0 14.2 15.0 7.1 9.9 10.1 12.7 3.6 4.6 15.0 15.0 15.0 15.0 15.0 15.0 15.0 12.3 15.0 8.8 6.8 15.0 15.0 15.0 13.8 15.0 15.0 15.0 13.3 8.8 3.4 0.2 0.3 14.2 15.0 8.4 15.0 15.0 15.0 15.0 15.0 15.0 15.0 15.0 15.0 15.0 15.0 15.0
15.0 12.2 8.4 7.5 11.2 10.7 9.8 9.4 12.1 15.0 15.0 15.0 15.0 6.4 0.0 6.6 15.0 15.0 13.2 11.8 15.0 15.0 15.0 15.0 15.0 14.4 0.3 0.1 0.2 1.1 3.8 15.0 15.0 15.0 14.2 13.0 0.0 0.0 0.2 10.6 15.0 15.0 15.0 15.0 15.0 14.8 15.0 15.0 14.9 15.0 15.0 15.0 15.0 15.0
15.0 15.0 10.4 6.6 6.5 6.9 7.5 8.1 15.0 15.0 15.0 15.0 15.0 0.3 15.0 15.0 15.0 15.0 15.0 15.0 15.0 15.0 15.0 15.0 15.0 0.2 4.5 0.2 0.0 0.3 4.7 10.7 15.0 15.0 11.4 1.6 0.1 2.5 0.1 0.0 15.0 15.0 15.0 15.0 15.0 15.0 15.0 15.0 15.0 15.0 15.0 15.0 15.0 15.0
15.0 15.0 15.0 15.0 15.0 15.0 15.0 15.0 15.0 15.0 15.0 15.0 15.0 15.0 9.9 15.0 15.0 15.0 9.0 6.5 15.0 7.2 15.0 15.0 9.2 15.0 0.1 0.6 0.0 0.0 0.1 0.1 14.2 6.5 1.2 0.8 0.2 1.2 10.1 1.8 9.4 8.3 15.0 15.0 15.0 15.0 15.0 15.0 15.0 15.0 15.0 15.0 15.0 15.0
15.0 15.0 15.0 15.0 15.0 15.0 15.0 15.0 15.0 15.0 15.0 15.0 15.0 5.1 4.6 10.5 15.0 13.8 12.8 3.3 0.1 0.0 0.0 0.1 0.0 0.3 2.4 0.0 0.0 0.0 0.6 0.6 11.3 3.4 0.1 0.1 0.3 0.4 0.4 1.6 1.0 1.5 5.6 8.6 5.9 15.0 15.0 15.0 15.0 14.5 4.6 5.7 14.5 4.3
15.0 15.0 15.0 15.0 15.0 15.0 15.0 15.0 15.0 15.0 15.0 15.0 1.4 4.5 6.5 0.8 0.3 0.1 0.1 0.1 0.1 0.1 0.2 0.0 0.0 0.1 0.0 0.0 0.0 0.0 0.0 0.3 0.1 0.1 0.1 0.1 0.1 0.1 0.2 0.3 3.7 0.2 0.2 0.2 0.1 0.1 0.1 0.1 0.1 0.1 0.1 0.1 0.1 0.1
15.0 15.0 15.0 15.0 15.0 15.0 15.0 15.0 15.0 15.0 15.0 15.0 15.0 0.4 0.5 0.1 6.3 1.2 1.2 0.2 1.1 15.0 0.3 0.0 0.0 0.0 0.0 0.0 0.2 0.1 0.1 0.1 0.1 0.1 0.1 0.1 0.1 0.1 0.1 0.1 0.1 0.1 0.1 0.1 0.1 0.1 0.1 0.1 0.2 0.1 0.1 0.1 0.1 0.1
15.0 15.0 15.0 15.0 15.0 15.0 15.0 15.0 15.0 15.0 15.0 15.0 14.2 7.6 10.8 10.5 15.0 15.0 9.6 9.2 15.0 14.8 0.6 0.0 0.0 0.1 0.1 0.2 0.1 0.1 0.7 0.1 0.1 0.1 0.1 0.1 0.1 0.1 0.1 0.1 0.1 0.1 0.1 0.1 0.1 0.1 0.1 0.1 0.2 0.1 0.1 0.1 0.1 0.4
15.0 15.0 15.0 15.0 15.0 15.0 15.0 15.0 15.0 15.0 15.0 1.0 0.1 2.8 13.9 12.6 0.5 0.1 3.7 4.3 1.3 0.2 1.0 14.8 7.9 0.1 5.0 15.0 1.9 2.2 0.2 0.1 0.1 0.1 0.1 0.1 0.1 0.1 0.1 0.1 0.1 0.1 0.1 0.1 0.1 0.1 0.1 0.1 0.6 6.9 0.2 0.1 0.1 0.1
15.0 15.0 15.0 6.3 7.7 15.0 15.0 15.0 15.0 15.0 2.7 0.2 0.4 0.1 0.9 0.5 0.7 0.2 1.4 0.5 2.6 14.8 14.8 4.7 15.0 14.7 1.0 1.2 0.2 0.1 0.2 0.1 0.1 0.1 0.1 0.1 0.1 0.1 0.1 0.1 0.1 0.1 0.1 0.1 0.2 0.3 0.2 0.6 0.6 0.1 0.2 0.3 0.5 0.4
15.0 15.0 15.0 15.0 15.0 15.0 15.0 15.0 15.0 5.8 0.1 0.1 0.2 0.2 0.2 0.4 0.8 0.5 0.6 8.9 15.0 15.0 15.0 15.0 15.0 1.0 0.2 0.2 0.1 0.1 0.1 0.1 0.1 0.1 0.1 0.1 0.1 0.1 0.1 0.1 0.1 0.1 0.1 0.1 0.2 0.1 0.1 0.3 0.2 0.3 0.3 0.5 0.1 0.2
15.0 15.0 15.0 15.0 15.0 15.0 15.0 15.0 15.0 11.3 0.4 0.1 0.4 0.9 1.8 0.3 3.0 15.0 14.3 14.6 15.0 15.0 10.8 3.8 0.2 0.1 0.1 0.1 0.1 0.1 0.1 0.1 0.1 0.1 0.1 0.1 0.1 0.1 0.1 0.1 0.1 0.1 0.1 0.2 0.2 0.3 0.6 0.7 0.3 0.4 0.4 1.0 1.9 0.2
15.0 15.0 15.0 15.0 15.0 15.0 15.0 15.0 9.1 10.8 0.1 0.1 2.2 15.0 15.0 15.0 15.0 15.0 15.0 15.0 15.0 14.3 0.1 0.1 0.1 0.1 0.2 0.2 0.2 0.5 0.4 11.8 0.4 0.7 0.3 0.2 0.1 0.2 0.1 0.1 0.1 0.2 0.2 0.1 0.2 0.1 0.3 0.1 0.2 15.0 14.9 14.8 6.8 14.8
15.0 15.0 15.0 15.0 15.0 15.0 15.0 15.0 15.0 15.0 15.0 15.0 15.0 15.0 15.0 15.0 15.0 15.0 15.0 11.2 0.1 0.1 0.1 0.2 0.1 0.4 0.4 0.2 0.2 0.6 0.3 0.8 0.6 0.4 0.4 0.6 0.2 0.1 0.1 0.1 0.3 0.2 1.5 7.5 15.0 14.6 9.9 14.5 15.0 5.2 0.9 11.8 15.0 15.0
15.0 15.0 15.0 9.6 15.0 15.0 15.0 15.0 15.0 15.0 15.0 15.0 15.0 15.0 15.0 15.0 15.0 15.0 15.0 1.3 0.1 0.5 9.2 7.8 6.5 12.5 6.7 9.4 5.1 0.6 1.2 2.1 0.5 1.3 2.1 1.5 8.1 8.2 9.6 2.5 7.0 15.0 2.3 0.8 15.0 8.3 2.5 15.0 15.0 15.0 15.0 15.0 15.0 15.0
15.0 3.4 8.1 15.0 15.0 0.7 15.0 15.0 15.0 15.0 15.0 15.0 15.0 15.0 13.2 15.0 15.0 15.0 0.8 0.2 1.5 1.6 0.1 3.3 15.0 15.0 15.0 15.0 15.0 15.0 15.0 15.0 12.0 1.6 5.4 15.0 15.0 15.0 15.0 15.0 13.1 0.4 3.9 15.0 15.0 15.0 15.0 9.7 15.0 15.0 15.0 15.0 15.0 12.3
15.0 15.0 15.0 15.0 15.0 15.0 15.0 15.0 15.0 15.0 15.0 15.0 15.0 7.6 14.6 15.0 15.0 3.6 1.4 0.4 0.3 1.0 8.4 15.0 15.0 15.0 15.0 15.0 15.0 15.0 15.0 15.0 15.0 15.0 15.0 0.7 0.9 14.2 14.3 15.0 15.0 15.0 15.0 1.3 14.3 15.0 15.0 11.1 8.2 15.0 15.0 15.0 15.0 12.5
10.4 15.0 15.0 15.0 15.0 15.0 15.0 15.0 15.0 15.0 15.0 12.8 3.4 8.5 15.0 15.0 6.7 0.3 0.3 0.2 2.0 1.5 0.2 0.3 15.0 15.0 15.0 15.0 15.0 15.0 15.0 15.0 15.0 15.0 15.0 15.0 15.0 10.6 5.7 9.8 13.2 6.0 12.0 4.8 14.4 15.0 15.0 15.0 14.6 4.6 15.0 15.0 14.4 15.0
8.7 6.3 15.0 15.0 15.0 15.0 15.0 15.0 15.0 15.0 15.0 6.5 13.7 15.0 15.0 9.9 0.8 0.4 0.1 4.7 2.7 1.2 15.0 15.0 15.0 15.0 15.0 15.0 15.0 15.0 15.0 15.0 15.0 15.0 15.0 15.0 15.0 15.0 15.0 15.0 4.1 1.7 13.1 14.8 15.0 15.0 14.0 14.8 15.0 13.8 10.3 15.0 15.0 8.9
13.4 15.0 3.3 12.3 15.0 15.0 15.0 15.0 12.8 3.0 6.3 13.8 15.0 10.2 1.7 0.7 0.2 0.1 0.6 5.9 15.0 15.0 15.0 15.0 15.0 15.0 12.7 1.5 0.4 2.3 4.4 15.0 15.0 15.0 15.0 15.0 15.0 4.7 9.7 15.0 15.0 3.9 15.0 15.0 15.0 15.0 15.0 15.0 14.6 15.0 10.8 2.2 5.7 0.8
15.0 15.0 15.0 15.0 15.0 15.0 0.9 2.3 2.9 14.8 15.0 0.5 14.6 2.7 3.2 0.5 1.3 0.7 10.8 15.0 15.0 15.0 14.9 13.7 13.4 14.7 13.9 15.0 15.0 15.0 12.2 2.5 14.8 4.2 1.0 0.5 0.6 0.9 15.0 8.8 15.0 15.0 1.8 0.5 13.2 15.0 15.0 15.0 14.3 15.0 15.0 15.0 7.3 15.0
15.0 15.0 15.0 15.0 9.5 1.4 0.2 0.9 0.3 9.6 15.0 15.0 12.2 3.6 4.5 0.2 0.3 9.2 10.9 2.5 0.2 1.4 4.9 0.9 0.2 0.2 0.2 3.3 4.3 4.1 10.6 7.6 4.3 4.0 3.8 1.7 1.0 2.0 15.0 15.0 9.0 5.9 9.3 15.0 15.0 8.5 15.0 12.8 9.3 7.4 13.7 15.0 15.0 15.0
15.0 15.0 15.0 15.0 2.1 4.1 11.8 15.0 15.0 15.0 15.0 12.6 15.0 15.0 4.2 2.3 11.0 5.0 4.9 12.2 15.0 14.6 15.0 15.0 7.0 6.3 13.5 2.4 0.9 0.8 1.5 9.6 15.0 15.0 15.0 8.8 5.0 15.0 15.0 15.0 15.0 15.0 2.1 15.0 15.0 15.0 15.0 15.0 15.0 11.3 13.7 15.0 7.2 11.7
15.0 15.0 15.0 13.1 0.4 1.2 0.4 0.1 9.0 2.7 1.2 15.0 15.0 13.6 2.1 1.0 1.0 3.4 15.0 15.0 1.4 0.2 0.4 0.6 2.5 2.8 6.2 11.1 14.4 14.5 14.6 15.0 15.0 4.9 15.0 6.8 3.6 5.9 4.8 0.8 1.2 14.9 15.0 15.0 11.2 1.7 9.0 15.0 15.0 15.0 14.7 15.0 15.0 7.0
15.0 15.0 15.0 6.7 0.8 1.1 1.6 3.0 15.0 6.5 6.0 8.6 4.3 2.4 3.1 0.7 0.7 0.6 14.9 3.0 0.2 0.3 2.3 4.1 5.4 15.0 15.0 8.2 9.0 8.4 6.7 5.0 7.1 7.6 4.7 5.0 10.3 14.1 11.5 15.0 15.0 15.0 9.3 15.0 15.0 9.8 11.1 5.7 3.2 11.7 15.0 14.5 5.8 8.0